{"data":{"norad_id":53850,"intl_designator":"2022-114AJ","name":"STARLINK-4767","alt_names":[],"object_type":"PAYLOAD","status":"ACTIVE","operator":null,"country":"US","launch_date":"2022-09-19","launch_site_code":"AFETR","launch_vehicle":null,"mission":null,"orbit_class":"UNKNOWN","rcs_meters":null,"size_class":null,"mass_kg":null,"dimensions":null,"purposes":["comms"],"wikipedia_slug":null,"has_3d_model":false,"image_url":null,"decayed_at":null,"tle_current":{"epoch":"2026-05-25T04:11:20.535072Z","epoch_age_seconds":63919,"freshness":"FRESH","line1":"1 53850U 22114AJ  26145.17454323  .00000266  00000+0  34824-4 0  9996","line2":"2 53850  53.2148 310.3835 0001263  86.3952 273.7185 15.08837554204526","mean_motion":15.08837554,"eccentricity":0.0001263,"inclination_deg":53.2148,"raan_deg":310.3835,"arg_perigee_deg":86.3952,"mean_anomaly_deg":273.7185,"bstar":3.4824e-5,"rev_number":20452,"period_min":95.437709393068,"perigee_km":538.87713618026,"apogee_km":540.62459465507,"semimajor_km":6917.8878654177,"source":"CELESTRAK","updated_at":"2026-05-25T13:38:17.576302Z"}}}